Time,TemperatureF,DewpointF,PressureIn,WindDirection,WindDirectionDegrees,WindSpeedMPH,WindSpeedGustMPH,Humidity,HourlyPrecipIn,Conditions,Clouds,dailyrainin,SoftwareType,DateUTC
2013-04-24 00:01:00,72.0,-99.9,30.11,ENE,74,10.0,14.0,-999,-99.99,,,-99.99,,2013-04-24 04:01:00,
2013-04-24 00:03:00,72.0,-99.9,30.11,ENE,70,12.0,18.0,-999,-99.99,,,-99.99,,2013-04-24 04:03:00,
2013-04-24 00:12:00,72.0,-99.9,30.10,ENE,77,11.0,15.0,-999,-99.99,,,-99.99,,2013-04-24 04:12:00,
2013-04-24 00:23:00,71.0,-99.9,30.10,ENE,67,11.0,17.0,-999,-99.99,,,-99.99,,2013-04-24 04:23:00,
2013-04-24 00:33:00,71.0,-99.9,30.10,ENE,68,9.0,19.0,-999,-99.99,,,-99.99,,2013-04-24 04:33:00,
2013-04-24 00:43:00,71.0,-99.9,30.10,ENE,75,9.0,17.0,-999,-99.99,,,-99.99,,2013-04-24 04:43:00,
2013-04-24 00:53:00,71.0,-99.9,30.10,ENE,70,10.0,16.0,-999,-99.99,,,-99.99,,2013-04-24 04:53:00,
2013-04-24 01:02:00,71.0,-99.9,30.10,East,79,10.0,15.0,-999,-99.99,,,-99.99,,2013-04-24 05:02:00,
2013-04-24 01:13:00,71.0,-99.9,30.10,ENE,61,11.0,16.0,-999,-99.99,,,-99.99,,2013-04-24 05:13:00,
2013-04-24 01:22:00,71.0,-99.9,30.10,ENE,61,8.0,15.0,-999,-99.99,,,-99.99,,2013-04-24 05:22:00,
2013-04-24 01:32:00,71.0,-99.9,30.10,ENE,74,8.0,14.0,-999,-99.99,,,-99.99,,2013-04-24 05:32:00,
2013-04-24 01:42:00,71.0,-99.9,30.10,ENE,62,7.0,16.0,-999,-99.99,,,-99.99,,2013-04-24 05:42:00,
2013-04-24 01:52:00,70.0,-99.9,30.09,ENE,67,8.0,13.0,-999,-99.99,,,-99.99,,2013-04-24 05:52:00,
2013-04-24 02:02:00,70.0,-99.9,30.09,ENE,72,7.0,13.0,-999,-99.99,,,-99.99,,2013-04-24 06:02:00,
2013-04-24 02:12:00,70.0,-99.9,30.09,ENE,63,9.0,14.0,-999,-99.99,,,-99.99,,2013-04-24 06:12:00,
2013-04-24 02:22:00,70.0,-99.9,30.09,ENE,68,9.0,14.0,-999,-99.99,,,-99.99,,2013-04-24 06:22:00,
2013-04-24 02:33:00,70.0,-99.9,30.08,ENE,71,9.0,14.0,-999,-99.99,,,-99.99,,2013-04-24 06:33:00,
2013-04-24 02:42:00,70.0,-99.9,30.08,ENE,69,6.0,11.0,-999,-99.99,,,-99.99,,2013-04-24 06:42:00,
2013-04-24 02:52:00,69.0,-99.9,30.08,ENE,61,8.0,15.0,-999,-99.99,,,-99.99,,2013-04-24 06:52:00,
2013-04-24 03:02:00,69.0,-99.9,30.07,ENE,69,9.0,14.0,-999,-99.99,,,-99.99,,2013-04-24 07:02:00,
2013-04-24 03:11:00,69.0,-99.9,30.07,ENE,62,7.0,13.0,-999,-99.99,,,-99.99,,2013-04-24 07:11:00,
2013-04-24 03:22:00,69.0,-99.9,30.07,ENE,73,7.0,13.0,-999,-99.99,,,-99.99,,2013-04-24 07:22:00,
2013-04-24 03:32:00,69.0,-99.9,30.07,ENE,59,7.0,11.0,-999,-99.99,,,-99.99,,2013-04-24 07:32:00,
2013-04-24 03:42:00,69.0,-99.9,30.07,ENE,74,8.0,13.0,-999,-99.99,,,-99.99,,2013-04-24 07:42:00,
2013-04-24 03:52:00,69.0,-99.9,30.07,ENE,71,8.0,13.0,-999,-99.99,,,-99.99,,2013-04-24 07:52:00,
2013-04-24 04:02:00,69.0,-99.9,30.07,ENE,68,7.0,11.0,-999,-99.99,,,-99.99,,2013-04-24 08:02:00,
2013-04-24 04:12:00,68.0,-99.9,30.07,ENE,70,8.0,12.0,-999,-99.99,,,-99.99,,2013-04-24 08:12:00,
2013-04-24 04:22:00,68.0,-99.9,30.07,ENE,73,7.0,12.0,-999,-99.99,,,-99.99,,2013-04-24 08:22:00,
2013-04-24 04:33:00,68.0,-99.9,30.07,ENE,68,7.0,10.0,-999,-99.99,,,-99.99,,2013-04-24 08:33:00,
2013-04-24 04:42:00,67.0,-99.9,30.07,ENE,63,6.0,13.0,-999,-99.99,,,-99.99,,2013-04-24 08:42:00,
2013-04-24 04:52:00,67.0,-99.9,30.07,ENE,62,6.0,10.0,-999,-99.99,,,-99.99,,2013-04-24 08:52:00,
2013-04-24 05:02:00,67.0,-99.9,30.07,ENE,61,7.0,11.0,-999,-99.99,,,-99.99,,2013-04-24 09:02:00,
2013-04-24 05:12:00,67.0,-99.9,30.08,NE,55,6.0,9.0,-999,-99.99,,,-99.99,,2013-04-24 09:12:00,
2013-04-24 05:22:00,67.0,-99.9,30.08,NE,50,6.0,9.0,-999,-99.99,,,-99.99,,2013-04-24 09:22:00,
2013-04-24 05:33:00,67.0,-99.9,30.08,NE,56,7.0,11.0,-999,-99.99,,,-99.99,,2013-04-24 09:33:00,
2013-04-24 05:42:00,66.0,-99.9,30.08,NE,56,6.0,10.0,-999,-99.99,,,-99.99,,2013-04-24 09:42:00,
2013-04-24 05:53:00,66.0,-99.9,30.08,ENE,61,5.0,10.0,-999,-99.99,,,-99.99,,2013-04-24 09:53:00,
2013-04-24 06:02:00,66.0,-99.9,30.09,NE,55,6.0,9.0,-999,-99.99,,,-99.99,,2013-04-24 10:02:00,
2013-04-24 06:13:00,66.0,-99.9,30.09,ENE,59,5.0,9.0,-999,-99.99,,,-99.99,,2013-04-24 10:13:00,
2013-04-24 06:23:00,66.0,-99.9,30.09,ENE,61,4.0,9.0,-999,-99.99,,,-99.99,,2013-04-24 10:23:00,
2013-04-24 06:33:00,65.0,-99.9,30.09,NE,50,4.0,7.0,-999,-99.99,,,-99.99,,2013-04-24 10:33:00,
2013-04-24 06:42:00,65.0,-99.9,30.09,ENE,64,4.0,7.0,-999,-99.99,,,-99.99,,2013-04-24 10:42:00,
2013-04-24 06:53:00,65.0,-99.9,30.09,NE,44,4.0,6.0,-999,-99.99,,,-99.99,,2013-04-24 10:53:00,
2013-04-24 07:03:00,65.0,-99.9,30.10,ENE,59,3.0,8.0,-999,-99.99,,,-99.99,,2013-04-24 11:03:00,
2013-04-24 07:12:00,65.0,-99.9,30.10,NE,54,3.0,7.0,-999,-99.99,,,-99.99,,2013-04-24 11:12:00,
2013-04-24 07:22:00,65.0,-99.9,30.11,ENE,59,3.0,6.0,-999,-99.99,,,-99.99,,2013-04-24 11:22:00,
2013-04-24 07:32:00,65.0,-99.9,30.11,NE,55,3.0,6.0,-999,-99.99,,,-99.99,,2013-04-24 11:32:00,
2013-04-24 07:43:00,65.0,-99.9,30.11,ENE,68,3.0,5.0,-999,-99.99,,,-99.99,,2013-04-24 11:43:00,
2013-04-24 07:53:00,66.0,-99.9,30.11,NE,55,4.0,6.0,-999,-99.99,,,-99.99,,2013-04-24 11:53:00,
2013-04-24 08:02:00,66.0,-99.9,30.11,NE,55,3.0,7.0,-999,-99.99,,,-99.99,,2013-04-24 12:02:00,
2013-04-24 08:12:00,67.0,-99.9,30.12,ENE,75,4.0,7.0,-999,-99.99,,,-99.99,,2013-04-24 12:12:00,
2013-04-24 08:22:00,67.0,-99.9,30.12,ENE,70,4.0,8.0,-999,-99.99,,,-99.99,,2013-04-24 12:22:00,
2013-04-24 08:32:00,68.0,-99.9,30.12,East,79,4.0,6.0,-999,-99.99,,,-99.99,,2013-04-24 12:32:00,
2013-04-24 08:43:00,69.0,-99.9,30.12,East,79,5.0,9.0,-999,-99.99,,,-99.99,,2013-04-24 12:43:00,
2013-04-24 08:52:00,70.0,-99.9,30.13,ENE,64,4.0,7.0,-999,-99.99,,,-99.99,,2013-04-24 12:52:00,
2013-04-24 09:01:00,70.0,-99.9,30.13,ENE,78,5.0,8.0,-999,-99.99,,,-99.99,,2013-04-24 13:01:00,
2013-04-24 09:12:00,71.0,-99.9,30.14,ENE,59,6.0,8.0,-999,-99.99,,,-99.99,,2013-04-24 13:12:00,
2013-04-24 09:22:00,71.0,-99.9,30.14,ENE,77,6.0,10.0,-999,-99.99,,,-99.99,,2013-04-24 13:22:00,
2013-04-24 09:32:00,72.0,-99.9,30.14,East,79,6.0,9.0,-999,-99.99,,,-99.99,,2013-04-24 13:32:00,
2013-04-24 09:42:00,73.0,-99.9,30.14,ENE,70,4.0,8.0,-999,-99.99,,,-99.99,,2013-04-24 13:42:00,
2013-04-24 09:52:00,73.0,-99.9,30.14,ESE,106,6.0,9.0,-999,-99.99,,,-99.99,,2013-04-24 13:52:00,
2013-04-24 10:01:00,74.0,-99.9,30.14,ENE,70,5.0,9.0,-999,-99.99,,,-99.99,,2013-04-24 14:01:00,
2013-04-24 10:12:00,74.0,-99.9,30.15,East,101,3.0,9.0,-999,-99.99,,,-99.99,,2013-04-24 14:12:00,
2013-04-24 10:22:00,75.0,-99.9,30.15,ESE,114,4.0,9.0,-999,-99.99,,,-99.99,,2013-04-24 14:22:00,
2013-04-24 10:32:00,75.0,-99.9,30.15,ESE,123,8.0,12.0,-999,-99.99,,,-99.99,,2013-04-24 14:32:00,
2013-04-24 10:42:00,75.0,-99.9,30.15,ESE,106,9.0,15.0,-999,-99.99,,,-99.99,,2013-04-24 14:42:00,
2013-04-24 10:52:00,76.0,-99.9,30.15,ESE,115,6.0,12.0,-999,-99.99,,,-99.99,,2013-04-24 14:52:00,
2013-04-24 11:01:00,76.0,-99.9,30.15,SE,130,9.0,15.0,-999,-99.99,,,-99.99,,2013-04-24 15:01:00,
2013-04-24 11:11:00,77.0,-99.9,30.15,ESE,109,6.0,14.0,-999,-99.99,,,-99.99,,2013-04-24 15:11:00,
2013-04-24 11:22:00,76.0,-99.9,30.15,SE,137,8.0,11.0,-999,-99.99,,,-99.99,,2013-04-24 15:22:00,
2013-04-24 11:33:00,78.0,-99.9,30.15,East,84,6.0,8.0,-999,-99.99,,,-99.99,,2013-04-24 15:33:00,
2013-04-24 11:43:00,78.0,-99.9,30.15,East,85,7.0,10.0,-999,-99.99,,,-99.99,,2013-04-24 15:43:00,
2013-04-24 11:53:00,77.0,-99.9,30.15,SE,145,6.0,11.0,-999,-99.99,,,-99.99,,2013-04-24 15:53:00,
2013-04-24 12:03:00,77.0,-99.9,30.15,SE,131,8.0,13.0,-999,-99.99,,,-99.99,,2013-04-24 16:03:00,
2013-04-24 12:12:00,78.0,-99.9,30.14,SE,127,6.0,10.0,-999,-99.99,,,-99.99,,2013-04-24 16:12:00,
2013-04-24 12:23:00,78.0,-99.9,30.14,SE,125,6.0,11.0,-999,-99.99,,,-99.99,,2013-04-24 16:23:00,
2013-04-24 12:32:00,79.0,-99.9,30.14,SE,127,1.0,8.0,-999,-99.99,,,-99.99,,2013-04-24 16:32:00,
2013-04-24 12:42:00,79.0,-99.9,30.13,SSE,164,5.0,8.0,-999,-99.99,,,-99.99,,2013-04-24 16:42:00,
2013-04-24 12:53:00,79.0,-99.9,30.13,SSE,156,5.0,10.0,-999,-99.99,,,-99.99,,2013-04-24 16:53:00,
2013-04-24 13:02:00,79.0,-99.9,30.13,ENE,62,5.0,8.0,-999,-99.99,,,-99.99,,2013-04-24 17:02:00,
2013-04-24 13:12:00,79.0,-99.9,30.12,ENE,73,3.0,11.0,-999,-99.99,,,-99.99,,2013-04-24 17:12:00,
2013-04-24 13:22:00,80.0,-99.9,30.12,South,175,6.0,10.0,-999,-99.99,,,-99.99,,2013-04-24 17:22:00,
2013-04-24 13:32:00,80.0,-99.9,30.12,SSE,159,5.0,8.0,-999,-99.99,,,-99.99,,2013-04-24 17:32:00,
2013-04-24 13:42:00,79.0,-99.9,30.12,SSW,199,3.0,6.0,-999,-99.99,,,-99.99,,2013-04-24 17:42:00,
2013-04-24 13:52:00,78.0,-99.9,30.12,SW,227,10.0,13.0,-999,-99.99,,,-99.99,,2013-04-24 17:52:00,
2013-04-24 14:02:00,78.0,-99.9,30.11,SW,223,9.0,14.0,-999,-99.99,,,-99.99,,2013-04-24 18:02:00,
2013-04-24 14:12:00,78.0,-99.9,30.11,SW,223,8.0,13.0,-999,-99.99,,,-99.99,,2013-04-24 18:12:00,
2013-04-24 14:22:00,77.0,-99.9,30.11,SW,233,11.0,13.0,-999,-99.99,,,-99.99,,2013-04-24 18:22:00,
2013-04-24 14:33:00,78.0,-99.9,30.11,SW,230,12.0,13.0,-999,-99.99,,,-99.99,,2013-04-24 18:33:00,
2013-04-24 14:43:00,78.0,-99.9,30.11,SW,235,12.0,13.0,-999,-99.99,,,-99.99,,2013-04-24 18:43:00,
2013-04-24 14:52:00,78.0,-99.9,30.11,WSW,239,12.0,14.0,-999,-99.99,,,-99.99,,2013-04-24 18:52:00,
2013-04-24 15:02:00,79.0,-99.9,30.10,SW,230,9.0,15.0,-999,-99.99,,,-99.99,,2013-04-24 19:02:00,
2013-04-24 15:12:00,78.0,-99.9,30.10,SW,232,11.0,13.0,-999,-99.99,,,-99.99,,2013-04-24 19:12:00,
2013-04-24 15:22:00,78.0,-99.9,30.09,WSW,238,11.0,13.0,-999,-99.99,,,-99.99,,2013-04-24 19:22:00,
2013-04-24 15:32:00,78.0,-99.9,30.09,WSW,246,10.0,12.0,-999,-99.99,,,-99.99,,2013-04-24 19:32:00,
2013-04-24 15:42:00,78.0,-99.9,30.09,WSW,253,9.0,11.0,-999,-99.99,,,-99.99,,2013-04-24 19:42:00,
2013-04-24 15:52:00,78.0,-99.9,30.09,WSW,248,9.0,11.0,-999,-99.99,,,-99.99,,2013-04-24 19:52:00,
2013-04-24 16:02:00,79.0,-99.9,30.09,WSW,258,8.0,11.0,-999,-99.99,,,-99.99,,2013-04-24 20:02:00,
2013-04-24 16:11:00,79.0,-99.9,30.09,West,264,7.0,10.0,-999,-99.99,,,-99.99,,2013-04-24 20:11:00,
2013-04-24 16:22:00,80.0,-99.9,30.08,West,266,6.0,9.0,-999,-99.99,,,-99.99,,2013-04-24 20:22:00,
2013-04-24 16:32:00,79.0,-99.9,30.09,West,265,7.0,11.0,-999,-99.99,,,-99.99,,2013-04-24 20:32:00,
2013-04-24 16:42:00,78.0,-99.9,30.08,WNW,296,8.0,9.0,-999,-99.99,,,-99.99,,2013-04-24 20:42:00,
2013-04-24 16:52:00,79.0,-99.9,30.08,West,281,7.0,9.0,-999,-99.99,,,-99.99,,2013-04-24 20:52:00,
2013-04-24 17:02:00,78.0,-99.9,30.08,WNW,286,7.0,9.0,-999,-99.99,,,-99.99,,2013-04-24 21:02:00,
2013-04-24 17:12:00,78.0,-99.9,30.08,WNW,294,8.0,9.0,-999,-99.99,,,-99.99,,2013-04-24 21:12:00,
2013-04-24 17:22:00,78.0,-99.9,30.08,WNW,302,8.0,9.0,-999,-99.99,,,-99.99,,2013-04-24 21:22:00,
2013-04-24 17:33:00,78.0,-99.9,30.08,WNW,296,9.0,10.0,-999,-99.99,,,-99.99,,2013-04-24 21:33:00,
2013-04-24 17:43:00,79.0,-99.9,30.08,WNW,299,8.0,10.0,-999,-99.99,,,-99.99,,2013-04-24 21:43:00,
2013-04-24 17:53:00,79.0,-99.9,30.08,WNW,292,7.0,10.0,-999,-99.99,,,-99.99,,2013-04-24 21:53:00,
2013-04-24 18:03:00,79.0,-99.9,30.08,NW,304,8.0,9.0,-999,-99.99,,,-99.99,,2013-04-24 22:03:00,
2013-04-24 18:12:00,79.0,-99.9,30.07,WNW,302,9.0,9.0,-999,-99.99,,,-99.99,,2013-04-24 22:12:00,
2013-04-24 18:22:00,79.0,-99.9,30.08,NW,307,7.0,8.0,-999,-99.99,,,-99.99,,2013-04-24 22:22:00,
2013-04-24 18:33:00,79.0,-99.9,30.08,WNW,298,7.0,8.0,-999,-99.99,,,-99.99,,2013-04-24 22:33:00,
2013-04-24 18:42:00,79.0,-99.9,30.09,WNW,299,7.0,9.0,-999,-99.99,,,-99.99,,2013-04-24 22:42:00,
2013-04-24 18:53:00,79.0,-99.9,30.09,NW,309,7.0,9.0,-999,-99.99,,,-99.99,,2013-04-24 22:53:00,
2013-04-24 19:02:00,78.0,-99.9,30.09,NW,311,9.0,9.0,-999,-99.99,,,-99.99,,2013-04-24 23:02:00,
2013-04-24 19:12:00,78.0,-99.9,30.09,NW,317,10.0,11.0,-999,-99.99,,,-99.99,,2013-04-24 23:12:00,
2013-04-24 19:22:00,78.0,-99.9,30.09,NW,318,11.0,12.0,-999,-99.99,,,-99.99,,2013-04-24 23:22:00,
2013-04-24 19:32:00,78.0,-99.9,30.10,NW,317,11.0,13.0,-999,-99.99,,,-99.99,,2013-04-24 23:32:00,
2013-04-24 19:42:00,78.0,-99.9,30.10,NW,321,11.0,13.0,-999,-99.99,,,-99.99,,2013-04-24 23:42:00,
2013-04-24 19:52:00,77.0,-99.9,30.10,NW,321,11.0,13.0,-999,-99.99,,,-99.99,,2013-04-24 23:52:00,
2013-04-24 20:02:00,78.0,-99.9,30.10,NW,317,10.0,13.0,-999,-99.99,,,-99.99,,2013-04-25 00:02:00,
2013-04-24 20:12:00,77.0,-99.9,30.10,NW,319,10.0,12.0,-999,-99.99,,,-99.99,,2013-04-25 00:12:00,
2013-04-24 20:23:00,78.0,-99.9,30.10,NW,321,9.0,11.0,-999,-99.99,,,-99.99,,2013-04-25 00:23:00,
2013-04-24 20:32:00,77.0,-99.9,30.10,NW,319,8.0,10.0,-999,-99.99,,,-99.99,,2013-04-25 00:32:00,
2013-04-24 20:42:00,77.0,-99.9,30.11,NNW,332,8.0,9.0,-999,-99.99,,,-99.99,,2013-04-25 00:42:00,
2013-04-24 20:52:00,77.0,-99.9,30.11,NNW,327,8.0,9.0,-999,-99.99,,,-99.99,,2013-04-25 00:52:00,
2013-04-24 21:02:00,77.0,-99.9,30.11,NNW,328,7.0,9.0,-999,-99.99,,,-99.99,,2013-04-25 01:02:00,
2013-04-24 21:12:00,77.0,-99.9,30.11,NW,321,8.0,9.0,-999,-99.99,,,-99.99,,2013-04-25 01:12:00,
2013-04-24 21:23:00,77.0,-99.9,30.12,NNW,330,7.0,8.0,-999,-99.99,,,-99.99,,2013-04-25 01:23:00,
2013-04-24 21:32:00,77.0,-99.9,30.12,NNW,339,7.0,9.0,-999,-99.99,,,-99.99,,2013-04-25 01:32:00,
2013-04-24 21:42:00,77.0,-99.9,30.13,NNW,343,8.0,9.0,-999,-99.99,,,-99.99,,2013-04-25 01:42:00,
2013-04-24 21:53:00,77.0,-99.9,30.13,NNW,332,9.0,11.0,-999,-99.99,,,-99.99,,2013-04-25 01:53:00,
2013-04-24 22:02:00,77.0,-99.9,30.13,NNW,332,9.0,11.0,-999,-99.99,,,-99.99,,2013-04-25 02:02:00,
2013-04-24 22:11:00,77.0,-99.9,30.14,NNW,336,8.0,10.0,-999,-99.99,,,-99.99,,2013-04-25 02:11:00,
2013-04-24 22:22:00,76.0,-99.9,30.14,NNE,13,5.0,8.0,-999,-99.99,,,-99.99,,2013-04-25 02:22:00,
2013-04-24 22:32:00,76.0,-99.9,30.15,North,10,5.0,6.0,-999,-99.99,,,-99.99,,2013-04-25 02:32:00,
2013-04-24 22:42:00,76.0,-99.9,30.15,North,10,5.0,6.0,-999,-99.99,,,-99.99,,2013-04-25 02:42:00,
2013-04-24 22:52:00,76.0,-99.9,30.15,North,10,5.0,6.0,-999,-99.99,,,-99.99,,2013-04-25 02:52:00,
2013-04-24 23:02:00,76.0,-99.9,30.15,NNE,29,3.0,5.0,-999,-99.99,,,-99.99,,2013-04-25 03:02:00,
2013-04-24 23:11:00,76.0,-99.9,30.15,North,3,6.0,9.0,-999,-99.99,,,-99.99,,2013-04-25 03:11:00,
2013-04-24 23:22:00,76.0,-99.9,30.14,North,1,7.0,8.0,-999,-99.99,,,-99.99,,2013-04-25 03:22:00,
2013-04-24 23:33:00,76.0,-99.9,30.15,North,356,9.0,10.0,-999,-99.99,,,-99.99,,2013-04-25 03:33:00,
2013-04-24 23:43:00,75.0,-99.9,30.15,North,3,6.0,8.0,-999,-99.99,,,-99.99,,2013-04-25 03:43:00,
2013-04-24 23:52:00,75.0,-99.9,30.15,North,5,5.0,8.0,-999,-99.99,,,-99.99,,2013-04-25 03:52:00,